This is the latest recevied weather packets stored in our database for station/object KD9IXX-13. If no packets are shown the sender has not sent any weather packets the latest 10 day(s).
| Time | Temp. | Humidity | Pressure | Rain* | Wind** | Luminosity | Snow |
|---|---|---|---|---|---|---|---|
| 1777589402 | 8.33° C | 97% | 1016 hPa | 0 mm | - | 43 W/m² | - |
| 1777589102 | 8.33° C | 97% | 1016.1 hPa | 1.78 mm | - | 37 W/m² | - |
| 1777588802 | 8.33° C | 96% | 1016.1 hPa | 3.56 mm | - | 27 W/m² | - |
| 1777588502 | 8.33° C | 95% | 1016.2 hPa | 1.02 mm | - | 18 W/m² | - |
| 1777588202 | 8.33° C | 95% | 1016.2 hPa | 1.02 mm | - | 16 W/m² | - |
| 1777587902 | 8.33° C | 94% | 1016.3 hPa | 0 mm | - | 20 W/m² | - |
| 1777587602 | 8.33° C | 94% | 1016.2 hPa | 0 mm | - | 16 W/m² | - |
| 1777587303 | 8.89° C | 92% | 1016.2 hPa | 0 mm | - | 20 W/m² | - |
| 1777587002 | 8.89° C | 91% | 1016 hPa | 0 mm | - | 24 W/m² | - |
| 1777586702 | 9.44° C | 89% | 1016.1 hPa | 1.78 mm | - | 18 W/m² | - |
| 1777586407 | 10° C | 87% | 1016.3 hPa | 1.78 mm | - | 19 W/m² | - |
| 1777586102 | 9.44° C | 86% | 1016.5 hPa | 1.02 mm | - | 19 W/m² | - |
| 1777585807 | 10° C | 85% | 1016.4 hPa | 1.02 mm | - | 18 W/m² | - |
| 1777585502 | 10° C | 82% | 1016.1 hPa | 0 mm | - | 16 W/m² | - |
| 1777585202 | 10° C | 81% | 1016.1 hPa | 0 mm | - | 19 W/m² | - |
| 1777584902 | 10.56° C | 79% | 1016 hPa | 0 mm | - | 16 W/m² | - |
| 1777584602 | 11.11° C | 75% | 1015.9 hPa | 0 mm | - | 19 W/m² | - |
| 1777584302 | 11.67° C | 72% | 1015.7 hPa | 0 mm | - | 54 W/m² | - |
| 1777584002 | 11.67° C | 70% | 1015.8 hPa | 0 mm | - | 34 W/m² | - |
| 1777583702 | 12.22° C | 69% | 1015.9 hPa | 0 mm | - | 57 W/m² | - |
| 1777583402 | 12.22° C | 66% | 1016 hPa | 0 mm | - | 110 W/m² | - |
| 1777583103 | 11.67° C | 66% | 1015.8 hPa | 0 mm | - | 104 W/m² | - |
| 1777582802 | 12.78° C | 65% | 1016 hPa | 0 mm | - | 66 W/m² | - |
| 1777582502 | 13.33° C | 59% | 1015.7 hPa | 0 mm | - | 108 W/m² | - |
| 1777582202 | 13.33° C | 58% | 1015.9 hPa | 0 mm | - | 143 W/m² | - |
* Rain latest hour (hover to see other rain measurements)
** Current wind speed in m/s (hover to see current wind gust speed)